GFSNGP_prec_cloud_132.txt.gz
Cloud_Cover
0 0 0 0 0 3 5 5 4 5 5 1 0 3 5 5 5 5 32 5 2 1 49 100 100 46 92 89 100 100 94 41 15 84 99 96 39 5 5 5 8 5 5 5
0 0 0 5 0 0 4 3 5 5 4 0 0 0 1 5 9 56 1 5 5 11 5 98 100 60 16 53 100 100 100 100 100 100 100 10 73 30 8 5 90 100 100 60
0 5 5 0 0 0 0 0 3 4 3 0 0 0 8 15 0 0 0 5 0 5 86 100 66 11 38 86 36 98 100 100 100 100 100 100 100 72 8 5 14 6 59 100
1 5 2 1 5 0 0 3 4 2 0 0 0 1 8 0 5 54 9 4 1 33 81 46 70 27 48 92 98 100 100 100 100 100 100 100 100 100 100 23 33 24 60 40
5 5 5 5 1 0 0 0 0 0 0 0 4 0 7 10 76 53 100 97 100 100 98 84 89 98 29 95 99 100 100 100 100 100 100 100 100 100 100 100 92 99 99 76
68 5 5 5 1 0 0 0 0 0 0 0 0 0 0 1 13 100 100 97 100 100 100 100 100 86 24 100 100 100 100 100 100 100 100 100 100 100 100 100 100 100 100 94
24 5 5 5 1 0 0 3 5 0 0 0 0 0 3 16 80 100 100 100 100 87 64 92 88 100 67 97 100 100 100 100 100 100 100 100 100 100 100 100 100 100 100 100
100 62 5 5 5 3 4 5 0 0 0 0 9 54 46 87 100 100 98 100 100 87 100 97 98 100 100 100 100 100 100 100 100 100 100 100 100 100 100 100 100 100 100 100
99 5 5 55 5 5 5 2 0 0 65 100 100 100 85 100 100 100 100 100 100 100 100 100 100 100 100 100 100 100 100 100 100 100 100 100 100 100 100 100 100 100 100 100
100 53 5 5 31 5 5 5 0 20 100 100 100 100 100 100 100 100 100 100 84 100 100 100 100 100 100 100 100 100 100 100 100 100 100 100 100 100 100 100 100 100 100 100
100 16 5 5 5 5 5 5 9 99 100 100 100 66 89 100 100 100 100 63 98 100 100 100 100 100 100 100 100 100 100 100 100 100 100 100 100 100 100 100 100 100 100 100
100 43 5 5 5 5 41 5 5 14 100 100 84 80 44 100 100 100 100 97 100 98 100 100 100 100 100 100 100 100 100 100 100 100 100 100 100 100 100 100 100 100 100 100
100 58 12 45 5 14 75 5 1 3 69 100 79 99 100 87 98 100 100 100 100 100 100 100 100 100 100 100 100 100 100 100 100 100 100 100 100 100 100 100 100 100 100 100
63 32 66 36 41 80 5 5 44 76 28 21 100 100 100 16 90 99 92 100 100 100 100 100 100 100 100 100 100 100 100 100 100 100 100 100 100 100 100 100 100 100 100 100
100 40 54 56 100 6 65 29 15 2 3 39 57 13 2 24 5 9 88 19 73 100 100 100 100 100 100 100 100 100 100 100 100 100 100 100 100 100 100 100 100 100 100 100
100 90 57 70 100 83 99 19 5 0 0 0 0 0 0 0 0 0 6 32 100 92 86 100 100 100 100 100 100 100 100 100 100 100 100 100 100 100 100 100 100 100 100 100
100 100 43 85 100 100 100 29 5 30 2 5 0 0 0 0 0 0 0 89 88 32 98 100 100 100 100 100 100 100 100 100 100 100 100 100 100 100 100 100 100 100 100 100
100 100 92 72 98 100 90 84 100 100 100 75 3 0 0 0 0 0 0 0 24 5 2 89 100 100 100 100 100 100 100 100 94 93 100 100 100 100 100 100 100 100 100 100
100 100 100 100 100 100 97 99 100 100 100 13 0 0 0 0 0 0 0 0 5 5 2 0 93 100 100 100 100 100 100 100 100 100 100 100 100 100 100 100 100 100 100 100
100 100 100 100 100 100 74 46 45 9 5 4 0 0 0 0 0 0 0 0 0 4 51 12 67 100 100 100 100 100 100 100 100 100 100 100 100 100 100 100 100 100 100 100
79 86 100 100 100 86 5 21 5 5 5 6 5 3 0 0 0 0 0 0 0 0 1 36 86 99 100 100 100 100 100 100 100 100 100 100 100 100 100 100 100 100 100 100
100 78 100 100 64 51 11 11 5 20 70 64 14 5 5 5 0 0 3 0 0 0 0 0 1 19 54 100 100 100 100 100 100 85 100 100 100 100 100 100 100 100 80 98
100 100 100 100 56 19 13 20 5 5 5 33 76 94 12 5 5 5 5 4 1 0 0 0 0 0 0 8 64 100 100 100 100 96 51 17 97 100 65 92 99 100 99 99
100 100 100 98 11 44 17 43 53 65 43 97 93 80 95 79 38 13 35 14 5 2 0 0 0 0 0 0 0 0 2 18 77 100 98 87 100 100 100 70 33 25 29 10
83 73 73 17 24 58 90 93 86 73 37 39 44 31 89 100 100 93 68 92 10 5 5 3 0 0 0 0 0 0 0 0 0 0 0 37 58 78 52 27 4 2 1 0
100 100 66 67 84 94 100 100 100 100 100 100 100 99 60 97 100 100 13 100 96 5 5 5 5 3 0 0 0 0 0 0 0 0 0 0 0 0 0 0 0 0 0 0
97 100 100 100 100 100 100 100 100 100 100 100 100 100 100 100 100 100 88 62 97 78 8 5 5 5 5 5 5 4 0 0 0 0 0 0 0 0 0 0 0 0 0 0

GFSNGP_prec_cloud_135.txt.gz
Cloud_Cover
1 91 55 5 69 10 2 0 1 0 4 5 5 5 0 0 0 1 5 5 5 8 5 56 97 99 99 82 100 16 62 100 100 96 100 31 0 0 0 0 0 0 0 0
0 1 2 0 0 1 5 5 0 4 5 5 5 2 0 0 0 0 0 1 0 1 4 1 12 100 100 100 40 43 100 100 99 100 100 58 0 0 5 3 4 8 98 29
1 5 5 5 0 0 0 2 5 3 4 5 1 2 0 0 0 0 0 0 2 56 51 47 100 95 100 100 92 81 100 98 100 100 98 72 98 24 2 4 9 5 100 100
5 5 5 5 4 0 0 0 0 0 0 0 0 0 0 0 0 0 0 0 0 4 24 42 32 92 100 59 100 96 100 100 98 100 100 94 99 99 100 100 96 92 70 100
5 5 5 5 5 5 0 2 0 0 0 0 0 2 2 0 0 0 0 0 0 63 100 100 100 100 58 100 100 100 100 99 100 100 100 100 100 100 100 100 100 100 100 100
50 5 13 0 5 5 5 7 3 0 0 0 0 0 0 8 1 2 1 26 74 100 95 97 91 88 28 93 100 100 100 100 99 100 100 100 100 100 100 100 100 100 100 100
6 5 5 0 5 5 5 5 5 5 0 0 0 0 3 28 53 82 98 100 100 100 68 100 100 91 50 100 100 100 100 100 100 100 100 100 100 100 100 100 100 100 100 100
5 19 9 5 5 5 5 5 5 0 0 0 6 94 100 94 100 100 100 100 100 99 88 100 100 91 100 100 95 100 100 100 100 100 100 100 100 100 100 100 100 100 100 100
79 33 50 38 95 5 43 6 5 5 0 0 86 100 100 92 82 96 99 100 100 100 99 100 100 100 100 88 74 100 100 100 100 100 100 100 100 100 100 100 100 100 100 100
20 12 81 100 27 16 8 5 5 5 0 1 32 100 100 100 100 100 100 100 100 100 100 100 100 100 100 81 100 100 100 100 100 100 100 100 100 100 100 100 100 100 100 100
87 85 100 100 100 100 16 8 5 5 0 4 51 100 100 88 100 100 100 100 100 100 100 100 100 100 100 84 100 100 100 100 100 100 100 100 100 100 100 100 100 100 100 100
99 100 100 100 100 100 100 53 6 24 20 8 85 100 100 100 100 100 100 100 100 100 100 100 100 100 100 100 100 100 100 100 100 100 100 100 100 100 100 100 100 100 100 100
100 100 100 100 100 100 57 5 5 5 20 24 5 4 100 100 73 96 100 100 100 81 100 100 100 100 100 100 100 100 100 100 100 100 100 100 100 100 100 100 100 100 100 100
100 100 100 100 72 7 5 5 5 5 100 94 24 0 15 91 92 5 100 100 100 100 48 100 100 100 100 100 100 100 100 100 100 100 100 100 100 100 100 100 100 100 100 100
100 100 100 100 70 65 5 13 5 27 66 78 11 0 0 0 2 0 14 98 100 100 100 99 97 100 100 100 100 100 100 100 100 100 100 100 100 100 100 100 100 100 100 100
100 100 100 100 96 51 8 5 19 38 81 27 5 0 0 2 0 0 0 10 98 100 100 97 100 100 100 100 100 100 100 100 100 100 100 100 100 100 100 100 100 100 100 100
100 100 62 93 84 7 7 19 78 74 50 5 5 5 5 5 0 0 0 0 0 42 88 99 100 100 100 100 100 100 100 100 100 100 100 100 100 100 100 100 100 100 100 100
100 100 99 16 76 65 46 5 5 58 30 30 35 97 79 4 0 0 0 0 0 0 41 70 59 78 100 100 100 100 100 100 100 100 100 100 100 100 100 94 100 100 100 100
100 100 100 91 87 13 24 5 63 100 100 72 96 73 2 0 0 0 0 2 0 1 4 6 57 67 47 70 98 100 100 100 100 100 100 100 100 100 100 100 100 88 100 100
100 100 100 100 46 48 20 63 100 100 77 5 5 5 0 0 0 0 3 2 0 0 0 5 5 5 5 14 92 100 100 100 100 100 100 100 94 100 100 100 100 100 100 100
100 100 100 100 100 100 100 100 100 82 8 5 5 4 5 5 5 1 10 4 0 0 0 0 3 5 76 38 96 100 100 100 100 99 97 100 100 100 100 100 100 100 100 100
100 100 100 100 100 100 100 100 97 37 22 5 5 4 9 10 5 3 0 32 1 0 0 0 0 0 1 12 76 100 100 100 100 100 100 100 100 100 100 100 100 100 100 100
100 99 100 100 100 95 100 100 79 5 37 5 4 5 6 5 5 5 5 9 0 0 0 0 0 0 0 0 0 2 17 74 100 100 100 100 100 100 100 100 100 100 100 100
98 89 81 90 54 99 100 100 19 5 5 5 5 5 5 5 9 65 6 30 5 5 5 4 1 0 0 0 0 0 0 0 0 2 7 8 10 33 48 38 20 52 17 52
26 8 14 37 100 100 100 100 72 10 8 25 100 56 78 61 19 15 10 5 5 5 5 5 5 5 5 5 3 0 0 0 0 0 0 0 0 0 0 0 0 0 0 0
100 100 82 89 100 100 100 100 76 98 100 100 95 99 100 100 99 99 100 100 69 11 16 8 5 5 5 5 5 5 4 0 0 0 0 0 0 0 0 0 0 0 0 0
77 88 99 66 91 100 100 100 100 100 100 100 65 70 80 100 100 100 100 100 100 100 100 91 53 100 89 34 5 5 5 5 5 4 4 2 0 0 0 0 0 0 0 0

GFSNGP_prec_cloud_138.txt.gz
Cloud_Cover
13 5 4 5 0 0 0 1 0 0 0 0 0 0 0 0 0 0 0 0 0 5 5 5 2 0 4 59 75 99 17 89 100 100 100 5 0 0 0 0 0 0 0 0
1 33 5 81 50 5 5 5 5 0 4 5 2 0 0 0 0 0 0 0 6 39 36 100 83 58 22 9 100 97 82 10 6 100 99 98 6 0 0 0 0 0 0 0
0 0 0 0 0 0 0 0 1 0 0 0 0 0 0 0 0 0 0 0 20 91 97 85 47 100 100 100 57 93 87 84 86 84 99 98 100 100 1 0 0 0 0 0
2 0 0 0 0 0 0 0 0 0 0 0 0 0 0 0 0 0 0 0 0 15 46 69 100 100 83 16 88 12 100 73 100 100 78 56 100 100 78 5 0 0 0 0
66 4 4 0 0 0 4 5 0 0 0 0 0 0 0 0 0 0 0 0 4 32 64 100 97 100 100 14 20 37 97 94 38 98 100 100 100 100 94 96 86 98 64 89
36 5 1 5 5 5 5 3 2 4 0 0 13 0 0 0 0 0 6 42 23 44 98 90 96 91 100 100 100 99 100 100 55 99 100 100 78 100 100 100 100 100 100 100
39 6 6 5 5 5 4 0 0 4 5 2 2 6 55 36 38 33 85 100 100 100 100 100 100 100 98 96 95 85 100 100 100 77 100 100 100 100 100 100 100 100 100 100
100 86 39 5 8 42 7 5 5 5 5 5 16 97 78 93 90 100 100 100 100 100 100 100 95 95 100 100 76 71 100 100 100 100 100 100 100 100 100 100 100 100 100 100
100 100 100 26 13 5 5 5 5 5 5 5 5 42 22 82 99 73 91 100 100 100 100 100 100 100 100 99 36 49 100 100 100 100 100 100 100 100 100 100 100 100 100 100
100 100 100 8 43 40 46 85 30 5 5 5 5 48 99 100 100 100 100 100 100 100 100 100 100 100 96 49 23 23 81 100 100 100 100 100 100 100 100 100 100 100 100 100
100 100 100 100 67 50 54 32 36 5 5 5 76 92 15 38 100 100 100 100 100 93 100 100 100 100 74 90 24 86 80 100 100 100 100 100 100 100 100 100 100 100 100 100
100 100 100 100 97 50 62 100 96 44 5 23 5 5 0 3 100 100 62 96 100 100 100 100 100 100 100 100 90 75 100 100 100 100 100 100 100 100 100 100 100 100 100 100
100 100 100 100 100 100 100 35 36 68 52 5 5 5 5 4 96 100 98 68 37 100 100 100 100 100 100 86 100 97 100 100 97 100 100 100 100 100 100 100 100 100 100 100
100 100 100 100 100 100 100 100 100 84 5 5 5 5 5 5 4 0 2 0 3 88 100 100 100 100 100 100 100 100 100 100 100 100 100 100 100 100 100 100 100 100 100 100
97 100 100 100 100 100 100 100 100 61 7 14 13 5 5 5 5 0 0 0 0 5 97 100 100 98 100 99 98 98 100 100 100 100 100 100 100 100 100 100 100 100 100 100
99 100 100 100 100 100 100 100 84 69 5 13 12 5 16 29 10 2 2 0 0 0 5 56 100 88 100 43 6 75 100 100 99 100 98 100 100 100 100 100 100 100 100 100
100 100 100 100 100 100 100 59 7 31 9 5 5 23 8 63 7 5 0 0 0 0 0 27 81 62 90 100 100 100 100 100 100 100 100 100 100 100 100 100 100 100 100 100
100 100 100 100 100 94 37 40 8 69 14 11 5 5 5 6 6 4 0 0 0 0 0 0 4 92 70 89 100 100 100 100 100 100 100 100 100 100 100 98 100 100 100 100
100 100 100 100 89 80 41 33 80 38 36 47 5 5 5 5 2 0 0 0 0 0 0 0 0 2 23 10 20 88 100 100 100 100 100 100 100 100 100 100 100 100 100 100
100 100 100 100 100 48 12 56 7 13 62 61 6 5 21 5 5 0 0 0 0 0 0 0 2 3 2 26 100 54 63 100 100 100 100 100 100 100 100 100 100 100 72 61
100 100 98 100 100 44 5 8 8 40 96 100 97 62 54 5 5 5 4 0 0 0 0 0 0 0 0 4 5 2 13 28 37 90 100 100 100 100 100 100 100 100 100 100
100 100 100 100 53 89 20 6 44 100 100 100 82 84 22 5 5 5 5 5 5 2 0 0 0 0 0 0 0 0 4 7 68 100 89 92 100 100 72 94 100 100 100 100
100 100 100 86 81 13 76 55 94 8 98 100 75 98 41 14 5 5 5 5 5 6 5 5 2 0 0 0 0 0 0 0 9 62 80 67 70 81 75 27 35 24 86 100
100 100 100 100 99 100 100 100 94 89 100 100 100 97 68 38 7 6 5 5 5 63 59 5 5 5 5 4 0 0 0 0 0 0 0 0 0 5 3 7 7 10 31 14
97 87 94 100 100 100 100 98 100 100 100 100 100 100 77 78 15 91 30 23 31 32 100 74 28 48 6 5 5 1 0 0 0 0 0 0 0 0 0 0 0 0 0 0
94 100 98 98 100 100 100 100 100 100 100 100 100 100 91 100 100 90 91 96 64 29 84 94 100 100 85 5 5 5 5 4 5 5 4 2 0 0 0 0 0 0 0 0
67 71 99 100 100 100 100 93 69 98 100 100 100 94 14 99 100 100 86 92 100 100 100 100 100 100 81 5 5 5 61 16 5 5 4 1 1 0 0 0 0 0 0 0

GFSNGP_prec_cloud_141.txt.gz
Cloud_Cover
100 30 20 5 0 0 0 0 0 0 0 0 0 0 0 0 0 0 0 0 0 0 1 9 0 4 5 7 57 100 100 100 94 6 49 83 33 3 0 0 0 0 0 0
91 84 43 5 0 0 0 0 0 0 0 0 0 0 0 0 0 0 0 0 0 6 89 100 100 100 70 54 42 92 100 99 15 88 99 93 37 58 20 0 0 0 0 0
99 81 5 3 4 0 0 0 0 0 0 0 0 0 0 0 0 0 0 0 0 33 89 46 100 100 98 86 50 87 80 99 88 65 100 100 66 72 49 23 0 6 6 0
35 5 4 0 2 0 0 0 0 0 0 0 0 0 0 0 0 0 0 0 3 35 40 52 68 49 98 59 46 43 51 48 90 100 90 56 68 100 98 71 41 11 1 20
16 5 14 4 0 0 0 0 0 0 0 0 0 0 0 0 0 0 0 0 11 24 47 73 79 100 100 99 56 55 59 100 100 76 100 59 35 40 100 100 94 55 5 29
82 8 3 5 0 0 0 0 0 0 0 0 0 0 0 0 0 0 2 7 23 24 47 97 79 100 100 100 100 100 91 68 76 100 100 100 84 32 66 100 100 80 41 41
97 8 5 0 5 4 0 0 0 0 0 0 0 0 0 0 8 18 31 33 36 53 87 100 100 100 100 87 56 89 100 100 100 100 100 100 90 96 100 99 100 100 100 100
100 94 80 5 5 5 2 0 0 2 0 0 0 0 2 0 42 59 36 34 54 53 96 100 100 100 100 34 99 100 68 100 100 100 100 100 100 100 100 100 100 100 100 100
100 100 19 56 64 5 5 5 5 5 4 3 3 2 1 24 29 76 70 41 40 88 100 100 100 84 87 50 61 38 71 99 100 100 100 100 100 100 100 100 100 100 100 100
100 100 87 100 95 100 99 63 47 7 5 5 5 5 7 21 55 100 100 100 100 100 100 100 100 100 76 81 49 51 100 77 97 100 100 100 100 100 100 100 100 100 100 100
100 100 93 98 66 25 56 95 80 68 62 9 8 6 5 17 86 100 100 100 100 100 100 94 100 100 100 100 62 58 100 99 100 100 100 100 100 100 100 100 100 100 100 100
100 100 97 36 94 95 92 100 81 73 24 18 54 16 5 5 46 97 86 100 100 100 100 100 100 100 100 94 24 50 96 100 91 100 100 100 100 100 100 100 100 100 100 100
100 100 65 99 100 100 100 100 99 63 14 17 92 100 6 5 1 14 5 6 100 100 100 100 100 100 98 91 98 100 100 100 100 100 100 100 100 100 100 100 100 100 100 100
100 100 99 100 100 100 100 100 73 88 49 51 11 5 5 5 5 5 0 1 100 100 100 100 100 100 98 100 100 100 100 100 100 98 100 100 100 100 100 100 100 100 100 100
100 100 100 100 100 100 100 100 77 100 56 11 7 5 5 5 5 5 0 3 24 88 100 100 100 100 100 100 100 100 89 100 100 100 100 100 100 100 100 100 100 100 100 100
100 82 100 96 94 100 100 98 100 98 70 76 58 18 5 5 5 5 4 0 4 2 0 1 26 65 70 100 100 100 100 100 100 100 100 100 100 100 100 100 100 100 100 100
100 100 100 100 100 100 100 100 100 100 100 100 86 5 5 5 5 5 1 0 4 0 0 2 5 5 5 5 100 100 100 100 100 100 51 19 74 100 100 100 100 100 100 100
100 100 98 100 100 100 100 100 100 100 100 97 15 5 5 5 5 5 5 5 3 0 0 0 3 3 5 5 45 100 100 100 62 73 100 91 100 100 100 100 100 100 100 100
98 100 97 100 100 100 100 100 100 100 28 17 12 61 14 7 5 5 5 5 0 0 0 0 0 0 0 5 91 92 100 100 100 100 98 87 98 95 100 100 100 100 100 100
100 100 100 100 100 100 100 100 98 87 51 54 66 54 42 20 11 5 5 5 0 0 0 0 0 0 0 0 0 6 13 100 100 100 100 100 100 100 98 100 100 100 100 100
100 100 100 100 100 100 100 100 84 39 78 75 73 32 26 48 5 5 5 5 2 0 0 0 0 0 0 0 0 0 0 11 64 97 100 100 99 100 100 100 100 100 100 100
100 100 100 100 100 100 100 95 99 100 99 100 99 89 97 91 42 8 5 5 4 5 5 0 0 0 0 0 0 0 0 0 0 6 34 68 99 100 97 100 100 100 100 100
100 100 100 100 100 100 100 100 100 96 100 100 100 100 100 100 89 5 5 5 5 11 5 5 5 5 4 0 0 0 0 0 0 2 4 5 5 23 100 100 100 100 100 100
100 100 100 100 100 100 100 98 63 78 96 100 100 100 100 100 100 70 39 5 5 7 5 5 5 5 5 4 0 0 0 0 0 0 0 0 0 0 0 1 5 13 91 100
100 100 100 100 100 100 100 100 100 50 68 99 100 100 100 100 100 100 54 75 53 5 5 42 31 43 71 88 60 8 0 0 0 0 1 0 0 0 0 0 0 0 0 0
100 97 94 100 100 100 99 100 100 81 48 78 57 77 81 98 100 100 100 100 99 55 98 99 79 35 42 33 97 92 10 5 4 5 6 5 1 3 1 0 0 0 0 0
97 98 100 100 100 100 100 88 94 100 100 96 83 97 93 100 100 100 100 100 100 100 100 100 100 91 93 54 70 100 98 62 10 5 97 70 15 6 41 5 5 4 0 0

GFSNGP_prec_cloud_144.txt.gz
Cloud_Cover
100 100 100 79 43 5 5 34 100 100 13 5 2 1 0 0 0 0 0 0 0 0 0 0 0 0 0 2 10 6 74 14 7 85 100 97 16 31 24 45 3 17 15 7
100 100 82 97 82 5 0 4 5 5 4 4 0 0 0 0 0 0 0 0 0 0 0 0 0 8 7 22 33 77 17 4 14 80 100 66 72 42 90 52 14 12 0 12
100 100 92 100 33 3 0 0 0 0 0 0 0 0 0 0 0 0 0 0 0 0 0 0 1 5 0 4 12 25 92 96 98 87 98 100 100 100 95 51 65 100 22 32
100 100 84 100 9 1 0 0 0 0 0 0 0 0 0 0 0 0 0 0 0 0 0 2 0 10 22 0 0 0 3 9 17 26 75 70 99 96 97 48 93 98 10 58
94 100 100 98 5 1 0 0 0 0 0 0 0 0 0 0 0 0 0 0 0 0 3 19 32 77 87 54 13 4 0 0 8 19 64 77 85 98 100 90 89 97 39 70
100 100 100 66 5 0 0 0 0 0 0 0 0 0 0 0 0 0 0 0 0 0 5 21 90 94 100 60 10 8 17 10 22 46 95 99 86 62 95 73 69 100 100 92
100 100 100 94 30 0 1 0 0 0 0 0 0 0 0 0 0 0 0 0 2 12 64 91 46 92 89 63 54 77 69 82 93 99 100 99 97 85 89 96 25 96 100 98
100 100 100 100 94 5 1 0 0 0 0 0 0 0 0 0 0 0 0 6 1 16 45 100 100 99 84 100 71 100 97 72 100 98 100 100 100 100 100 80 93 28 100 100
100 100 100 99 100 60 5 4 5 0 0 0 0 0 0 0 0 0 0 59 91 100 100 100 100 99 100 79 100 91 40 73 100 100 96 100 100 100 100 88 98 100 100 100
100 100 94 100 29 5 5 5 5 5 1 4 5 5 5 5 4 87 78 97 100 84 91 100 100 82 100 98 100 47 98 96 88 100 100 100 100 100 100 100 100 100 100 100
100 100 100 100 88 23 5 5 5 5 5 5 5 6 5 5 39 69 30 34 56 82 100 100 100 100 78 97 85 38 100 75 47 100 100 100 100 100 100 100 100 100 100 100
100 100 100 100 94 5 8 47 5 5 5 5 70 26 94 45 53 18 81 53 100 100 93 96 85 100 91 58 89 86 88 93 12 99 100 100 100 100 100 100 100 100 100 100
100 100 100 100 57 30 100 100 100 28 5 5 5 5 33 50 75 44 59 74 100 96 100 100 100 99 81 96 86 64 43 77 99 100 100 100 100 100 100 100 100 100 100 100
100 100 100 73 100 100 100 100 82 5 5 5 5 5 23 28 63 85 61 68 96 100 100 100 100 99 70 71 99 100 100 97 100 100 100 100 100 100 99 98 100 100 100 100
100 100 100 98 100 100 100 100 100 30 5 5 7 61 32 43 60 48 18 78 68 100 100 100 100 100 86 88 92 71 99 100 100 100 100 100 100 100 100 100 100 100 100 100
100 100 100 90 95 90 100 100 100 100 95 76 97 62 19 44 77 46 6 32 50 90 99 100 100 96 100 97 73 43 80 100 100 100 100 100 100 100 100 100 100 100 100 100
100 100 95 96 97 92 100 100 100 100 100 100 99 84 76 74 100 52 18 5 5 5 0 0 30 71 46 9 0 5 100 100 100 91 94 100 100 100 100 100 100 100 100 100
100 100 94 99 91 99 97 100 100 100 100 100 100 100 100 100 48 20 5 5 5 5 1 0 0 0 5 2 4 5 53 100 100 100 100 100 100 85 84 96 100 100 100 100
98 97 100 100 85 99 100 100 100 100 100 100 100 100 100 100 44 5 5 5 5 5 2 0 0 0 0 0 0 5 5 100 100 100 100 100 98 36 5 5 75 100 100 100
100 100 100 100 100 100 87 100 100 100 100 100 100 100 100 10 5 5 5 5 5 5 5 0 0 0 0 0 0 0 5 9 100 100 100 100 100 79 5 12 14 98 100 100
100 100 100 100 100 94 100 100 100 100 100 100 100 100 12 5 5 5 5 5 5 5 5 0 0 0 0 0 0 0 0 0 0 18 100 100 100 90 93 74 9 100 100 100
100 100 100 100 100 100 100 100 100 100 100 100 100 42 5 5 10 45 58 28 7 5 5 0 0 0 0 0 0 0 0 0 0 0 0 28 80 100 100 100 100 93 30 9
100 100 100 100 100 100 100 100 100 100 100 100 100 78 14 6 87 99 80 14 8 10 5 0 0 0 0 0 0 0 0 0 0 0 0 0 0 0 4 21 70 100 97 100
100 100 100 100 100 100 100 100 100 100 100 100 100 100 58 32 98 75 40 55 38 40 9 5 5 5 0 5 5 3 5 5 5 5 0 0 0 0 0 0 0 0 0 9
100 100 100 100 100 100 100 100 100 100 100 100 100 94 54 82 40 46 100 95 100 100 68 94 59 12 5 5 5 5 5 5 45 37 17 8 3 0 0 0 0 0 0 0
100 100 100 100 100 100 100 100 100 100 100 100 100 99 87 86 69 98 100 100 100 100 100 100 100 100 100 100 98 99 7 6 48 73 100 100 100 7 2 5 4 4 3 1
100 100 100 100 100 100 100 100 100 100 100 100 100 100 100 100 100 100 100 100 100 100 100 100 100 100 100 100 100 100 92 53 82 69 88 100 100 84 24 66 70 78 5 5